Lid_Strength_Index
2 2 1 1 1 2 2 1 2 2 2 2 2 2 2 2 2 3 6 3 3 0 2 6 6 6 7 8 8 9 14 15 14 13 13 12 12 11 11 11 11 10 10 9 7
3 3 2 2 1 1 2 1 1 2 2 1 2 2 2 3 5 7 2 -1 -1 0 6 7 8 8 10 9 9 12 15 14 13 13 13 11 12 11 13 12 12 11 9 7 6
4 4 3 3 3 2 2 1 1 1 1 1 2 1 2 3 7 8 -1 -1 -1 1 4 6 7 8 11 10 10 11 13 11 11 10 11 11 12 10 12 13 12 11 10 8 8
5 5 4 4 4 3 2 2 1 1 1 1 1 1 1 5 15 5 0 0 0 4 5 7 8 10 11 12 10 13 11 10 10 10 10 12 11 12 11 11 10 11 9 9 9
5 5 5 4 5 4 4 3 2 2 1 1 1 1 5 9 9 5 2 2 4 5 7 8 9 9 12 11 11 12 12 10 10 10 11 10 12 12 12 10 10 10 9 9 9
5 4 5 5 5 5 4 4 3 2 1 2 1 1 7 13 6 5 5 5 5 7 8 8 9 8 10 11 12 11 11 11 11 10 10 11 12 11 11 10 10 10 10 9 9
5 5 5 4 4 5 5 4 4 3 2 1 2 3 8 9 6 5 5 6 6 7 8 8 8 9 10 11 9 11 13 12 11 11 11 11 13 12 11 10 10 10 10 10 9
4 5 6 5 5 5 5 5 4 4 3 1 2 5 10 5 6 5 5 6 6 6 7 7 8 9 10 9 10 12 13 16 12 11 11 13 15 12 11 11 11 10 10 10 10
3 4 5 5 5 5 5 5 4 4 3 1 5 7 10 5 8 6 5 6 6 6 7 6 7 10 11 14 15 14 17 16 13 11 11 14 15 11 11 11 11 11 11 11 10
2 3 4 4 4 4 4 4 4 4 4 3 4 10 9 9 7 6 5 5 7 7 8 9 10 13 14 16 20 17 17 14 14 12 12 14 14 12 11 11 11 11 11 11 11
2 3 4 3 4 4 4 6 8 9 7 10 9 9 9 8 5 6 5 6 7 9 13 10 14 16 14 14 13 14 16 17 14 11 13 14 14 12 11 11 11 11 11 11 10
3 3 4 3 3 3 4 7 7 8 10 6 7 8 7 7 9 7 5 9 10 13 11 13 15 12 12 12 13 14 16 17 14 12 14 15 15 12 11 11 10 10 10 10 10
2 3 3 2 2 3 5 5 3 4 9 8 6 8 7 8 10 8 7 8 10 12 12 14 12 10 11 13 13 14 15 15 16 14 14 15 17 14 11 11 10 10 10 10 10
1 2 2 2 4 5 6 3 2 2 14 12 9 8 8 8 11 6 5 8 10 11 11 12 11 12 12 13 12 15 13 13 13 16 19 15 20 16 12 11 11 10 11 10 10
1 1 1 1 5 6 4 2 1 3 25 12 8 6 7 9 9 8 5 7 11 11 11 13 12 12 13 12 12 13 12 13 14 16 17 18 19 17 15 13 11 11 11 11 10
1 1 1 2 3 2 1 2 3 14 20 12 9 10 9 8 9 7 7 6 7 9 10 11 10 11 11 12 11 12 13 14 15 17 21 17 17 18 14 12 13 13 12 11 10
0 1 1 1 6 1 1 4 14 18 12 15 13 10 10 11 10 9 10 11 12 15 14 12 11 11 10 12 11 12 14 18 20 22 21 18 18 15 13 12 12 12 13 12 11
0 1 1 1 1 1 3 9 18 16 16 10 10 10 13 11 11 10 11 13 10 11 14 15 17 12 10 12 13 13 14 17 22 21 19 19 19 15 12 14 13 12 12 12 12
1 4 4 2 -0 2 7 15 17 16 11 11 11 14 14 12 12 11 12 12 10 10 14 15 14 10 10 9 10 13 15 13 16 20 19 18 16 14 14 14 14 13 12 12 12
6 6 4 0 0 4 10 13 15 9 9 10 14 13 16 14 14 13 13 10 11 8 8 11 16 12 11 9 10 12 11 15 16 22 22 18 18 16 16 15 15 15 14 12 12
6 11 4 0 2 7 13 15 11 8 8 11 12 15 13 14 13 14 13 11 9 9 8 10 13 15 12 13 14 13 14 14 14 16 19 20 17 15 15 15 15 14 12 12 12
7 17 4 3 9 9 13 11 8 9 7 9 10 11 12 12 13 13 13 11 8 8 11 10 12 17 15 12 10 11 12 13 16 17 16 16 17 13 13 13 13 12 11 12 12
13 10 5 4 14 14 10 10 9 10 10 10 11 10 10 12 15 12 12 10 9 9 11 10 14 18 17 13 13 14 13 12 13 14 16 18 16 13 14 14 14 13 13 12 12
12 15 11 8 8 12 11 11 11 8 9 9 10 10 12 13 13 13 12 10 9 9 8 8 13 15 17 15 13 15 14 13 13 16 16 16 15 14 13 13 13 14 13 12 12
10 14 13 15 13 13 12 11 12 13 9 9 10 11 13 15 13 15 12 11 9 8 9 10 15 14 13 13 13 13 13 12 14 13 15 14 14 12 11 12 13 12 12 12 12
11 12 13 13 10 12 12 15 12 11 12 13 12 10 10 14 12 14 12 11 12 10 10 9 15 13 15 13 13 15 13 13 13 13 14 14 14 10 10 11 11 10 11 12 12
8 5 9 10 12 14 14 12 11 10 10 9 10 12 12 11 10 10 9 10 10 11 12 12 13 15 17 14 14 18 14 13 13 12 13 15 11 10 10 10 10 10 10 9 9